This demonstration page uses our WeatherBlox Daily Observations layout. Learn more.

Left ArrowRight Arrow

39.51506, -84.39828

Hourly Observations for November 30, 2015

Temp ( °F °C ) Dew Point ( °F °C ) Humidity (%) Winds ( mph kmh ) Pressure ( in mb ) Visibility ( mi km ) Precip ( " mm )
12:15 am 00:15 Clear 40 4.6 33 0.7 76 76 NE 7 11 30.27 1025 10 16 N/A
12:35 am 00:35 Clear 39 4 33 0.5 78 78 NE 7 11 30.27 1025 10 16 N/A
12:55 am 00:55 Clear 39 4 33 0.4 78 78 NE 9 15 30.24 1024 10 16 N/A
1:15 am 01:15 Clear 39 4 33 0.3 77 77 NE 7 11 30.24 1024 10 16 N/A
1:35 am 01:35 Clear 39 4 32 0.1 76 76 NE 7 11 30.24 1024 10 16 N/A
1:55 am 01:55 Clear 39 4 32 0.2 77 77 NE 7 11 30.24 1024 10 16 N/A
2:15 am 02:15 Clear 39 4 33 0.3 77 77 NNE 6 9 30.24 1024 10 16 N/A
2:35 am 02:35 Clear 39 4 33 0.3 77 77 NE 6 9 30.24 1024 10 16 N/A
2:55 am 02:55 Clear 39 4 32 0.2 77 77 NE 6 9 30.24 1024 10 16 N/A
3:15 am 03:15 Clear 39 4 32 0.2 77 77 NE 6 9 30.24 1024 10 16 N/A
3:35 am 03:35 Clear 39 4 32 0.2 77 77 NE 8 13 30.24 1024 10 16 N/A
3:55 am 03:55 Clear 39 4 32 0.1 76 76 NE 7 11 30.21 1023 10 16 N/A
4:15 am 04:15 Clear 39 4 32 undefined 75 75 NE 7 11 30.21 1023 10 16 N/A
4:35 am 04:35 Clear 39 4 32 undefined 75 75 ENE 6 9 30.21 1023 10 16 N/A
4:55 am 04:55 Clear 39 4 32 undefined 75 75 ENE 8 13 30.21 1023 10 16 N/A
5:15 am 05:15 Clear 39 4 32 undefined 75 75 ENE 7 11 30.21 1023 10 16 N/A
5:35 am 05:35 Clear 39 4 32 -0.1 75 75 ENE 8 13 30.18 1022 10 16 N/A
5:55 am 05:55 Clear 39 4 32 -0.1 75 75 ENE 9 15 30.18 1022 10 16 N/A
6:15 am 06:15 Clear 39 4 32 -0.2 74 74 ENE 9 15 30.18 1022 10 16 N/A
6:35 am 06:35 Clear 39 4 32 -0.1 75 75 ENE 9 15 30.18 1022 10 16 N/A
6:55 am 06:55 Clear 39 4 32 undefined 75 75 ENE 9 15 30.18 1022 10 16 N/A
7:15 am 07:15 Partly Cloudy 39 4 32 undefined 75 75 ENE 8 13 30.18 1022 10 16 N/A
7:35 am 07:35 Partly Cloudy 39 4 32 undefined 75 75 ENE 8 13 30.18 1022 10 16 N/A
7:55 am 07:55 Partly Cloudy 39 4 32 undefined 75 75 ENE 9 15 30.18 1022 10 16 N/A
8:15 am 08:15 Mostly Cloudy 39 4 32 0.1 76 76 ENE 6 9 30.18 1022 10 16 N/A
8:35 am 08:35 Cloudy 39 4 32 0.1 76 76 N N/A 30.21 1023 10 16 N/A
8:55 am 08:55 Mostly Cloudy 39 4.1 33 0.4 77 77 NE 7 11 30.18 1022 10 16 N/A
9:15 am 09:15 Partly Cloudy 40 4.7 34 1 77 77 NE 8 13 30.15 1021 10 16 N/A
9:35 am 09:35 Mostly Cloudy 40 4.7 33 0.7 76 76 ENE 8 13 30.15 1021 10 16 N/A
9:55 am 09:55 Cloudy 41 4.9 33 0.5 73 73 ENE 12 19 30.15 1021 10 16 N/A
10:15 am 10:15 Cloudy 42 5.5 34 1.1 74 74 NE 10 17 30.15 1021 10 16 N/A
10:35 am 10:35 Cloudy 42 5.5 34 1 73 73 NE 8 13 30.15 1021 10 16 N/A
10:55 am 10:55 Cloudy 42 5.8 34 1.2 73 73 NE 8 13 30.15 1021 10 16 N/A
11:15 am 11:15 Cloudy 43 6.3 35 1.8 73 73 ENE 7 11 30.15 1021 10 16 N/A
11:35 am 11:35 Cloudy 44 6.8 36 2.2 73 73 E 7 11 30.15 1021 10 16 N/A
11:55 am 11:55 Mostly Cloudy 47 8.2 38 3.5 73 73 ENE 7 11 30.15 1021 10 16 N/A
12:15 pm 12:15 Mostly Cloudy 49 9.6 40 4.5 71 71 E 7 11 30.12 1020 10 16 N/A
12:35 pm 12:35 Mostly Cloudy 49 9.6 40 4.6 71 71 ENE 7 11 30.09 1019 10 16 N/A
12:55 pm 12:55 Cloudy 49 9.6 40 4.6 71 71 ENE 7 11 30.09 1019 10 16 N/A
1:15 pm 13:15 Cloudy 49 9.6 40 4.7 72 72 ENE 8 13 30.09 1019 10 16 N/A
1:35 pm 13:35 Cloudy 49 9.6 40 4.5 71 71 ENE 7 11 30.06 1018 10 16 N/A
1:55 pm 13:55 Cloudy 49 9.6 40 4.6 71 71 ENE 7 11 30.06 1018 10 16 N/A
2:15 pm 14:15 Cloudy 49 9.6 42 5.5 76 76 E 8 13 30.06 1018 10 16 N/A
2:35 pm 14:35 Cloudy with Haze 49 9.6 44 6.5 81 81 E 7 11 30.06 1018 5 8 N/A
2:55 pm 14:55 Cloudy with Mist and Fog 49 9.6 45 7 84 84 E 6 9 30.06 1018 3 5 N/A
3:15 pm 15:15 Cloudy 49 9.6 45 7 84 84 E 6 9 30.06 1018 7 11 N/A
3:35 pm 15:35 Cloudy 49 9.6 45 7 84 84 E 7 11 30.06 1018 10 16 N/A
3:55 pm 15:55 Cloudy 49 9.6 45 7 84 84 E 6 9 30.06 1018 10 16 N/A
4:15 pm 16:15 Cloudy 49 9.6 44 6.8 83 83 E 8 13 30.03 1017 10 16 N/A
4:35 pm 16:35 Cloudy 49 9.6 44 6.8 83 83 E 5 7 30.06 1018 10 16 N/A
4:55 pm 16:55 Cloudy 49 9.6 44 6.8 83 83 ESE 6 9 30.06 1018 10 16 N/A
5:15 pm 17:15 Cloudy 49 9.6 45 7 84 84 E 7 11 30.06 1018 10 16 N/A
5:35 pm 17:35 Cloudy 49 9.6 45 7 84 84 ENE 5 7 30.06 1018 10 16 N/A
5:55 pm 17:55 Cloudy 49 9.6 44 6.8 83 83 E 6 9 30.06 1018 10 16 N/A
6:15 pm 18:15 Cloudy 49 9.6 44 6.8 83 83 ENE 9 15 30.06 1018 10 16 N/A
6:35 pm 18:35 Cloudy 49 9.6 45 7.1 85 85 E 5 7 30.06 1018 7 11 N/A
7:15 pm 19:15 Cloudy with Mist and Fog 47 8.2 43 6.2 87 87 E 6 9 30.06 1018 4 6 N/A
7:35 pm 19:35 Cloudy 47 8.2 43 6.2 87 87 E 3 6 30.06 1018 7 11 N/A
7:55 pm 19:55 Cloudy with Mist and Fog 47 8.2 43 6.2 87 87 ENE 3 6 30.06 1018 5 8 N/A
8:15 pm 20:15 Cloudy with Mist and Fog 47 8.2 43 6.2 87 87 ENE 3 6 30.03 1017 3 4 N/A
8:35 pm 20:35 Cloudy with Mist and Fog 47 8.2 43 6.3 88 88 ENE 5 7 30.03 1017 3 4 N/A
8:55 pm 20:55 Cloudy with Mist and Fog 47 8.2 44 6.5 89 89 N N/A 30.03 1017 2 3 N/A
9:15 pm 21:15 Cloudy with Mist and Fog 47 8.2 44 6.5 89 89 N N/A 30.03 1017 3 5 N/A
9:35 pm 21:35 Cloudy with Mist and Fog 47 8.2 44 6.5 89 89 NE 3 6 30.03 1017 3 5 N/A
9:55 pm 21:55 Cloudy with Mist and Fog 47 8.2 44 6.5 89 89 ENE 5 7 30.00 1016 3 5 N/A
10:15 pm 22:15 Cloudy with Mist and Fog 47 8.2 44 6.5 89 89 N N/A 30.03 1017 3 5 N/A
10:35 pm 22:35 Cloudy with Mist and Fog 47 8.2 44 6.5 89 89 N N/A 30.03 1017 3 5 N/A
10:55 pm 22:55 Cloudy with Mist and Fog 47 8.2 44 6.5 89 89 N N/A 30.00 1016 4 6 N/A
11:15 pm 23:15 Cloudy with Mist and Fog 47 8.2 44 6.5 89 89 NE 3 6 30.00 1016 4 6 N/A
11:35 pm 23:35 Cloudy with Mist and Fog 47 8.2 44 6.5 89 89 ENE 6 9 29.97 1015 4 6 N/A
11:55 pm 23:55 Cloudy with Mist and Fog 47 8.2 44 6.5 89 89 NNW 6 9 29.97 1015 3 4 N/A

Powered by AerisWeather